Location: Casteau
(50.5142°N, 4.0161°E)
Time: 19:22:03
(UTC+00:00)

Tiros 1 - Pass Details

Date: 31 July 2021
Orbit: 630 x 663 km, 48.4° (Epoch: 28 September)

Event Time Altitude Azimuth Distance (km) Brightness Sun altitude
Rises 19:18:33 0° 244° (WSW) 2,977 11.1 0.7°
Reaches altitude 10° 19:20:56 10° 239° (WSW) 2,063 10.2 0.4°
Maximum altitude 19:25:34 53° 163° (SSE) 800 7.4 -0.3°
Drops below altitude 10° 19:30:10 10° 87° (E) 2,047 9.2 -0.9°
Sets 19:32:31 0° 83° (E) 2,953 10.1 -1.2°
